Regional Weather Roundup
Issued by NWS

Home | Current Version | Previous Version | Graphics & Text | Print | Product List | Glossary On
Versions: 1 2 3 4 5 6 7 8 9 10 11 12 13 14 15 16 17 18 19 20 21 22 23 24 25 26 27 28 29 30 31 32 33 34 35 36 37 38 39 40 41 42 43 44 45 46 47 48 49 50
000
ASUS45 KSLC 180810
RWRUT

UTAH REGIONAL WEATHER ROUNDUP
NATIONAL WEATHER SERVICE SALT LAKE CITY UT
200 AM MDT SAT APR 18 2015

UTZ001>011-023>025-180900-

NORTHERN UTAH

CITY           SKY/WX    TMP DP  RH WIND       PRES   REMARKS
BRIGHAM CITY   CLEAR     44  38  78 CALM      30.05S
HILL AFB       CLEAR     47  37  66 E14       30.04S
LOGAN          CLEAR     42  35  76 CALM      30.05R
OGDEN          CLEAR     46  36  68 SW6       30.03S
PROVO AIRPORT  PTCLDY    46  36  66 NW6       30.04S
SALT LAKE CITY PTCLDY    48  36  63 CALM      30.02F
VERNAL         CLOUDY    44  33  65 S3        30.04F
WENDOVER       CLEAR     54  18  24 S8        30.05F
HEBER CITY     CLOUDY    41  32  70 E6        30.08S
WEST JORDAN    CLEAR     46  36  66 NW6       30.04F

$$

UTZ012>022-026-027-180900-

SOUTHERN/CENTRAL UTAH

CITY           SKY/WX    TMP DP  RH WIND       PRES   REMARKS
BLANDING       CLOUDY    35  35 100 NE8       30.10R WCI  28
BRYCE CANYON   CLEAR     35  26  69 NW6       30.10F WCI  30
CEDAR CITY     CLEAR     38  28  67 SE8       30.07F WCI  32
DELTA          PTCLDY    41  29  62 SE7       30.05F
HANKSVILLE     CLOUDY    43  43 100 CALM      30.05S
MILFORD        CLEAR     35  28  75 SE5       30.06S WCI  31
MOAB/CYNLANDS  LGT RAIN  40  39  97 SE8       30.03S WCI  34
PRICE          CLOUDY    41  34  76 N3        30.03F
ST GEORGE      MOSUNNY   54  27  35 NE3       30.03S
KANAB          CLEAR     39  30  70 NE6       30.09S WCI  35

$$

REGIONAL REPORTS     COLORADO/ARIZONA

CITY           SKY/WX    TMP DP  RH WIND       PRES   REMARKS
CRAIG, CO      CLOUDY    36  32  85 SW8       30.03S WCI  30
GRAND JUNCTION CLOUDY    36  36 100 S6        30.05F WCI  31
RIFLE          CLOUDY    35  32  88 SE6       30.06S WCI  30
MONTROSE       CLOUDY    32  31  96 N5        30.07F WCI  27
CORTEZ         LGT SNOW  33  32  96 N3        30.03R VSB 1
PAGE, AZ       PTCLDY    52  34  50 CALM      30.01F
GRAND CANYON   CLEAR     27  23  85 CALM      30.11S
KINGMAN        CLEAR     45  19  35 E5        30.02S
FLAGSTAFF      PTCLDY    31  24  75 CALM      30.12S

$$

REGIONAL REPORTS    NEVADA/IDAHO/WYOMING

CITY           SKY/WX    TMP DP  RH WIND       PRES   REMARKS
LAS VEGAS, NV  CLEAR     67  15  13 SW5       29.92R
ELY            CLEAR     31  11  43 S12       30.15S WCI  22
ELKO           CLEAR     38  21  50 CALM      30.12S
POCATELLO, ID  CLEAR     49  23  36 SW10      30.05S
BURLEY         CLEAR     40  25  55 S7        30.03S
EVANSTON, WY   PTCLDY    34  30  85 NE3       30.11F
ROCK SPRINGS   CLOUDY    36  34  92 VRB3      30.08F

$$



USA.gov is the U.S. government's official web portal to all federal, state and local government web resources and services.